Location: Newark
(45.4422°N, 16.2769°E)
Time: 21:11:26
(UTC+00:00)

Tiros 1 despin weight - Pass Details

Date: 23 December 2019
Orbit: 594 x 642 km, 48.2° (Epoch: 26 January)

Event Time Altitude Azimuth Distance (km) Brightness Sun altitude
Rises 01:39:13 0° 272° (W) 2,919 - -50.0°
Reaches altitude 10° 01:41:35 10° 276° (W) 2,005 - -49.6°
Maximum altitude 01:46:09 61° 357° (N) 709 - -48.9°
Drops below altitude 10° 01:50:39 10° 79° (ENE) 1,974 - -48.1°
Exits shadow 01:52:52 - 82° (E) 2,833 ? -47.7°
Sets 01:52:58 0° 83° (E) 2,870 ? -47.7°
